PROGRESS-MS 29

Last updated on Wed Feb 05 2025 00:02:08 GMT+0000 (Coordinated Universal Time)

1 62030U 24215A 25035.62619039 .00014709 00000+0 26709-3 0 9993 2 62030 51.6374 243.6061 0003513 275.7741 124.9443 15.49797991 10690
UTC large
Height (km)
Speed (km/s)
/
Latitude / Longitude
Inclination (degrees)
Orbital Period (minutes)
Azimuth
Elevation
Range (km)
Doppler Factor

Next 0 passes for location: London (51.5072 / 0.1276)

Sorry there are no passes over London.